Temp
48 44 37 44 50 54 56 53 52 57 58 55 55 57 60 65 64 65 69 72 73 74 79 81 81 82 81 82 82 84 83 84 84 83 73 69 67 70 76 81 83 82 83 81
46 40 48 50 52 50 53 52 52 56 59 53 56 55 62 63 63 65 67 70 72 74 77 77 77 78 79 79 80 80 82 83 84 84 81 74 72 70 72 71 74 78 81 80
45 45 52 45 45 44 46 50 53 51 54 54 53 51 55 61 64 66 65 67 70 69 69 71 73 73 74 74 77 78 80 81 82 83 84 79 78 78 72 69 70 72 75 78
49 48 49 45 40 43 43 57 57 52 47 41 52 44 54 59 56 58 62 65 66 66 67 68 68 68 68 70 72 73 75 77 79 80 80 80 77 74 76 76 75 73 73 72
36 44 44 43 40 43 43 54 55 52 49 48 45 42 51 55 51 56 61 62 64 65 66 66 66 67 68 67 67 69 70 72 74 76 76 77 76 78 78 78 76 77 76 72
41 48 44 43 43 44 51 51 49 49 46 35 48 46 44 50 54 56 60 62 63 64 66 67 67 69 68 68 68 69 70 70 72 72 73 73 73 75 74 74 74 76 76 75
36 37 41 43 36 41 43 39 31 30 30 36 47 42 50 54 59 59 59 61 62 64 65 66 65 66 66 66 67 68 69 69 71 71 71 72 72 73 73 73 74 73 73 70
33 30 34 40 39 36 38 37 34 30 34 39 43 38 48 57 60 60 61 61 62 63 64 64 64 65 66 65 65 66 66 67 68 69 70 71 72 71 72 73 74 74 73 73
34 32 39 41 44 44 37 36 47 39 42 40 43 48 52 53 55 57 58 59 59 61 62 62 64 64 65 64 64 64 64 65 65 65 67 69 70 69 68 70 71 71 72 70
44 32 38 40 45 49 45 48 38 37 30 32 42 45 46 47 50 55 56 58 59 60 61 62 62 62 63 63 63 63 63 62 62 63 64 63 64 64 65 66 67 67 68 68
51 44 37 44 39 39 43 41 42 43 40 37 36 44 56 52 54 55 57 58 59 59 59 60 61 62 61 61 61 61 61 60 60 61 61 60 61 62 62 62 62 62 63 62
51 45 34 39 47 50 49 47 48 37 34 37 37 41 58 58 57 57 57 58 60 58 57 58 58 59 59 58 58 58 59 58 59 60 61 60 61 61 61 60 60 60 59 60
52 42 32 34 42 46 42 46 47 43 39 34 37 40 59 59 56 57 57 59 59 58 57 57 57 57 56 56 56 56 56 56 57 58 58 56 56 57 56 56 56 56 55 54
53 45 38 36 39 43 35 42 43 35 34 40 42 44 49 53 54 58 59 59 59 57 56 56 56 55 55 54 54 54 54 55 55 55 54 52 52 52 51 51 51 50 50 48
52 38 40 43 44 43 40 39 41 33 40 36 45 47 51 55 56 58 59 58 57 55 54 54 53 54 54 53 53 53 52 53 54 52 51 49 49 48 47 46 45 45 45 46
51 38 41 35 42 42 37 42 43 41 43 44 46 45 57 60 60 58 58 56 53 52 51 52 50 51 52 52 51 51 51 51 52 50 49 48 48 46 44 44 44 44 43 43
47 43 39 34 40 40 35 41 42 43 46 46 39 49 56 54 55 56 55 52 51 50 51 51 50 50 50 50 51 50 50 51 49 48 47 47 46 43 42 42 41 39 38 37
46 44 42 37 39 29 42 49 48 45 47 49 50 52 54 55 57 56 54 53 51 49 49 50 50 48 49 50 50 50 50 48 46 46 45 45 43 40 38 37 35 35 35 34
52 47 40 35 36 42 42 44 44 43 43 51 49 53 55 55 51 50 53 52 50 48 50 51 51 49 47 48 48 46 46 45 44 42 40 41 40 37 36 35 34 35 34 33
48 49 42 36 30 30 43 48 53 52 38 52 53 52 51 51 46 50 50 48 45 49 50 48 47 46 46 45 46 43 42 42 39 38 38 38 37 36 35 35 34 33 34 34
40 41 36 37 35 41 50 51 53 36 39 52 54 54 52 51 51 50 47 44 49 49 47 46 45 44 44 43 43 39 38 35 36 38 37 37 36 35 35 34 34 35 35 36
40 38 37 38 34 31 52 49 44 49 55 55 54 55 54 51 47 46 44 44 47 46 44 44 42 41 43 42 39 35 34 36 36 37 36 35 37 38 38 36 38 39 39 39
39 46 43 44 43 52 56 55 57 57 54 54 53 55 53 51 45 45 43 45 46 46 45 43 41 42 40 40 38 35 36 37 37 37 38 39 41 43 44 43 42 42 43 42
48 51 46 45 52 53 56 58 57 57 54 53 54 54 53 51 49 46 45 44 44 45 44 45 44 39 37 39 39 38 38 41 42 42 42 43 43 43 43 42 44 42 42 40
49 49 48 48 53 54 56 58 56 54 54 51 52 54 54 54 51 47 45 44 45 44 44 43 41 39 38 39 38 41 42 44 44 44 43 42 42 42 41 41 42 41 39 38
51 49 46 46 54 54 54 57 55 53 52 52 51 53 53 53 53 50 45 45 46 45 44 41 42 39 38 39 40 42 45 46 44 42 41 40 40 41 40 38 37 38 38 37
MSLP
1009.09 1009.26 1009.29 1008.96 1008.64 1008.67 1007.78 1007.69 1007.37 1007.29 1008.32 1008.64 1008.43 1008.24 1008.18 1008.28 1008.47 1008.11 1007.62 1007.28 1007.19 1007.23 1007.39 1007.68 1008.00 1008.27 1008.68 1008.91 1009.09 1009.17 1009.44 1009.81 1010.15 1010.35 1011.61 1012.38 1012.61 1012.84 1012.53 1012.25 1012.26 1012.65 1012.93 1013.38
1008.51 1008.68 1009.09 1009.66 1009.79 1009.39 1008.23 1007.04 1006.88 1007.41 1007.96 1008.96 1008.24 1007.98 1007.76 1007.93 1008.05 1008.12 1007.83 1007.39 1007.23 1007.19 1007.25 1007.76 1008.39 1008.64 1008.77 1008.94 1009.12 1009.29 1009.25 1009.47 1009.70 1009.81 1010.26 1011.53 1012.12 1012.47 1012.59 1012.86 1012.71 1012.47 1012.46 1012.63
1007.39 1008.35 1009.23 1010.34 1010.06 1009.79 1008.98 1007.17 1006.77 1007.56 1008.62 1009.31 1008.66 1007.94 1007.62 1007.74 1007.96 1007.95 1008.22 1008.29 1008.07 1008.10 1008.22 1008.52 1008.74 1008.87 1009.06 1009.05 1009.05 1009.11 1009.14 1009.28 1009.39 1009.58 1009.72 1010.43 1011.04 1011.18 1011.84 1012.26 1012.35 1012.50 1012.63 1012.37
1008.13 1009.25 1009.26 1010.27 1010.53 1010.33 1008.88 1007.56 1007.07 1007.78 1008.84 1008.47 1008.88 1006.85 1006.46 1006.93 1008.00 1008.38 1008.42 1008.40 1008.49 1008.80 1009.04 1009.24 1009.36 1009.39 1009.54 1009.50 1009.61 1009.64 1009.56 1009.40 1009.50 1009.66 1009.63 1009.54 1009.82 1010.21 1010.73 1011.14 1011.57 1011.83 1011.98 1012.23
1009.70 1009.57 1010.00 1010.51 1010.91 1011.06 1009.69 1008.59 1007.90 1008.61 1008.69 1008.46 1008.79 1008.26 1006.55 1007.57 1007.83 1008.02 1008.37 1008.89 1009.09 1009.24 1009.31 1009.60 1009.83 1009.87 1010.08 1010.23 1010.15 1010.07 1010.03 1009.98 1009.95 1009.92 1009.86 1009.68 1009.62 1009.70 1010.09 1010.47 1010.75 1010.88 1011.17 1011.53
1010.14 1010.65 1011.32 1011.61 1011.78 1011.75 1010.57 1009.59 1009.54 1009.37 1009.10 1008.76 1007.62 1007.68 1007.15 1007.08 1007.20 1007.94 1008.62 1009.09 1009.30 1009.45 1009.60 1009.84 1010.08 1010.10 1010.24 1010.47 1010.46 1010.33 1010.07 1010.06 1010.10 1010.01 1010.00 1009.96 1009.83 1009.74 1009.90 1010.12 1010.18 1010.24 1010.45 1010.90
1010.88 1011.94 1012.46 1012.61 1012.63 1012.40 1011.41 1011.01 1010.54 1010.35 1009.71 1008.05 1007.99 1008.08 1006.66 1007.20 1007.28 1007.97 1008.62 1009.16 1009.49 1009.60 1009.82 1010.07 1010.29 1010.50 1010.72 1010.76 1010.71 1010.59 1010.45 1010.24 1010.21 1010.12 1010.17 1010.01 1010.00 1009.94 1009.85 1009.92 1009.95 1010.12 1010.27 1010.68
1010.68 1012.64 1012.98 1013.08 1012.59 1012.20 1011.44 1011.18 1009.65 1008.47 1007.93 1007.71 1008.78 1007.38 1006.66 1007.68 1008.10 1008.52 1009.10 1009.52 1009.72 1009.83 1010.12 1010.42 1010.64 1010.75 1010.83 1011.02 1011.06 1011.03 1010.89 1010.75 1010.57 1010.50 1010.35 1010.20 1010.22 1010.11 1010.04 1009.99 1009.99 1010.01 1010.16 1010.43
1009.94 1011.74 1012.79 1012.86 1012.38 1011.86 1011.19 1010.80 1009.83 1008.81 1007.95 1007.35 1007.21 1007.14 1007.85 1008.30 1008.42 1008.88 1009.28 1009.66 1009.83 1010.11 1010.49 1010.81 1010.87 1010.95 1011.11 1011.38 1011.50 1011.58 1011.39 1011.30 1011.20 1011.05 1010.81 1010.56 1010.42 1010.66 1010.62 1010.51 1010.37 1010.41 1010.41 1010.55
1008.71 1010.59 1012.12 1012.30 1011.95 1010.99 1010.44 1010.61 1010.10 1009.70 1008.42 1006.96 1006.42 1005.95 1005.95 1007.57 1008.12 1008.63 1009.19 1009.44 1009.83 1010.31 1010.74 1010.98 1011.15 1011.38 1011.57 1011.74 1011.93 1011.89 1011.78 1011.80 1011.80 1011.67 1011.50 1011.48 1011.47 1011.38 1011.25 1011.02 1010.93 1010.95 1010.93 1011.01
1007.66 1008.91 1011.37 1011.38 1011.35 1010.64 1010.29 1009.87 1009.77 1009.25 1008.49 1007.13 1006.42 1005.72 1005.41 1006.68 1007.64 1008.41 1009.03 1009.52 1009.91 1010.46 1010.94 1011.33 1011.52 1011.68 1012.06 1012.23 1012.36 1012.40 1012.36 1012.26 1012.27 1012.16 1012.10 1012.08 1011.82 1011.80 1011.69 1011.65 1011.67 1011.70 1011.72 1011.74
1007.96 1008.83 1010.13 1010.52 1010.71 1010.52 1009.92 1009.42 1009.18 1009.47 1009.16 1008.36 1007.43 1006.86 1006.36 1006.93 1007.77 1008.61 1009.11 1009.57 1010.02 1010.68 1011.35 1011.68 1011.85 1012.08 1012.36 1012.60 1012.79 1012.90 1012.84 1012.78 1012.82 1012.64 1012.40 1012.33 1012.24 1012.14 1012.07 1012.17 1012.36 1012.40 1012.47 1012.51
1008.01 1008.68 1009.73 1010.27 1010.54 1010.40 1010.16 1009.90 1009.76 1010.09 1009.90 1008.78 1007.47 1007.21 1006.80 1007.27 1008.18 1008.53 1008.90 1009.39 1010.06 1010.75 1011.41 1011.74 1012.09 1012.46 1012.77 1013.09 1013.36 1013.47 1013.41 1013.36 1013.33 1013.16 1013.08 1013.15 1013.04 1013.00 1013.09 1013.21 1013.34 1013.33 1013.35 1013.55
1008.02 1008.43 1009.05 1009.14 1009.32 1009.57 1010.22 1010.00 1010.29 1010.50 1009.92 1008.35 1007.50 1007.22 1007.49 1007.51 1007.98 1008.15 1008.47 1009.20 1009.98 1010.85 1011.53 1011.85 1012.30 1012.83 1013.18 1013.60 1013.87 1013.92 1014.02 1013.97 1013.84 1013.85 1013.91 1014.06 1014.00 1014.09 1014.19 1014.22 1014.38 1014.57 1014.66 1014.58
1008.14 1008.74 1009.41 1009.53 1009.71 1009.77 1009.91 1010.10 1010.16 1010.38 1009.84 1008.99 1007.99 1007.09 1006.97 1007.35 1007.72 1008.01 1008.56 1009.33 1010.13 1010.99 1011.69 1012.21 1012.73 1013.11 1013.42 1013.86 1014.04 1014.25 1014.47 1014.48 1014.29 1014.41 1014.61 1014.98 1015.09 1015.23 1015.21 1015.28 1015.35 1015.57 1015.68 1015.80
1008.69 1009.12 1009.60 1009.90 1009.90 1009.87 1009.87 1009.77 1009.82 1010.02 1009.73 1009.20 1008.58 1007.91 1007.28 1007.42 1007.90 1008.32 1008.72 1009.55 1010.49 1011.33 1012.16 1012.75 1013.17 1013.42 1013.82 1014.10 1014.40 1014.82 1015.00 1014.94 1014.92 1015.13 1015.19 1015.48 1015.78 1016.01 1016.13 1016.22 1015.95 1016.17 1016.60 1016.66
1008.64 1009.05 1009.49 1009.56 1009.90 1009.74 1009.38 1008.81 1009.20 1009.32 1009.14 1008.76 1008.39 1007.95 1007.72 1007.83 1008.04 1008.61 1009.32 1010.36 1011.06 1011.77 1012.25 1012.92 1013.63 1014.04 1014.40 1014.63 1014.85 1015.11 1015.14 1015.35 1015.59 1015.63 1015.86 1016.21 1016.62 1016.72 1016.78 1017.17 1017.31 1017.38 1017.79 1018.00
1008.75 1008.98 1009.32 1009.23 1009.42 1008.81 1008.29 1008.36 1008.43 1008.66 1008.60 1008.57 1008.28 1008.05 1008.16 1008.36 1008.68 1009.33 1010.10 1010.58 1011.40 1012.16 1012.77 1013.39 1013.89 1014.36 1014.71 1015.07 1015.24 1015.44 1015.52 1015.86 1016.20 1016.48 1016.76 1016.98 1017.24 1017.51 1017.78 1018.16 1018.39 1018.49 1018.61 1019.03
1008.85 1008.85 1009.08 1009.17 1008.64 1008.05 1008.07 1008.25 1008.20 1008.17 1008.08 1008.01 1008.15 1008.21 1008.32 1008.71 1009.38 1009.60 1010.35 1011.06 1011.88 1012.67 1013.09 1013.56 1014.05 1014.66 1015.23 1015.51 1015.69 1015.89 1016.23 1016.57 1016.86 1017.34 1017.68 1017.81 1018.05 1018.33 1018.54 1018.75 1018.92 1019.29 1019.55 1019.91
1009.37 1009.21 1009.33 1009.37 1008.77 1007.76 1007.73 1008.08 1008.08 1007.99 1007.79 1007.90 1008.07 1008.26 1008.61 1009.13 1009.32 1009.85 1011.09 1012.06 1012.77 1013.08 1013.48 1014.11 1014.75 1015.31 1015.60 1015.99 1016.22 1016.59 1016.94 1017.15 1017.58 1018.08 1018.35 1018.61 1018.76 1018.84 1019.06 1019.30 1019.57 1020.09 1020.25 1020.43
1009.07 1009.10 1009.10 1008.85 1008.46 1007.68 1007.59 1007.98 1008.04 1007.94 1008.42 1008.11 1008.20 1008.24 1008.62 1009.09 1009.91 1010.79 1011.78 1012.59 1012.96 1013.37 1014.09 1014.79 1015.30 1015.43 1015.94 1016.49 1016.84 1017.24 1017.67 1017.96 1018.26 1018.61 1018.95 1019.13 1019.31 1019.50 1019.62 1019.86 1020.17 1020.39 1020.53 1020.64
1008.42 1008.41 1008.57 1008.64 1008.31 1007.80 1007.70 1007.99 1007.80 1007.92 1007.93 1008.13 1008.28 1008.46 1008.77 1009.56 1010.52 1011.43 1012.20 1012.80 1013.24 1013.86 1014.62 1015.06 1015.40 1015.95 1016.48 1016.89 1017.38 1017.80 1018.07 1018.44 1018.81 1019.11 1019.28 1019.47 1019.61 1019.66 1019.92 1020.13 1020.30 1020.39 1020.40 1020.45
1008.33 1007.96 1007.77 1007.88 1007.55 1007.45 1007.40 1007.40 1007.70 1007.96 1008.15 1008.50 1008.77 1008.92 1009.29 1009.85 1010.81 1011.67 1012.40 1012.93 1013.42 1013.90 1014.50 1015.29 1015.89 1016.28 1016.86 1017.26 1017.67 1017.89 1018.32 1018.70 1019.09 1019.34 1019.38 1019.43 1019.41 1019.43 1019.56 1019.76 1019.90 1019.99 1020.05 1020.27
1008.00 1008.14 1007.90 1007.82 1006.87 1007.17 1007.28 1007.47 1007.86 1008.06 1008.47 1008.74 1009.03 1009.18 1009.43 1009.81 1010.58 1011.51 1012.30 1012.92 1013.46 1013.99 1014.67 1015.20 1015.71 1016.46 1017.05 1017.43 1017.83 1018.18 1018.46 1018.58 1018.66 1018.95 1019.06 1019.08 1019.26 1019.54 1019.80 1019.97 1020.00 1020.08 1020.31 1020.52
1007.93 1007.90 1007.42 1007.18 1007.00 1007.11 1007.15 1007.41 1007.98 1008.55 1008.84 1009.11 1009.27 1009.31 1009.42 1009.73 1010.35 1011.25 1012.06 1012.75 1013.35 1014.05 1014.67 1015.26 1015.70 1016.35 1016.93 1017.37 1017.80 1018.07 1018.16 1018.18 1018.28 1018.60 1018.95 1019.29 1019.56 1019.65 1019.87 1020.10 1020.25 1020.42 1021.00 1021.03
1007.49 1007.24 1007.14 1006.58 1006.78 1006.85 1007.13 1007.79 1008.52 1008.76 1009.05 1009.29 1009.42 1009.23 1009.44 1009.70 1010.04 1010.97 1011.89 1012.61 1013.13 1013.75 1014.46 1015.09 1015.50 1016.16 1016.75 1017.20 1017.48 1017.70 1017.84 1017.83 1018.17 1018.60 1019.04 1019.41 1019.70 1019.85 1020.00 1020.41 1020.94 1021.34 1021.56 1021.71
Wind_Speed
15 16 19 28 28 19 17 18 22 15 8 13 23 18 17 11 11 12 12 13 12 13 11 11 11 9 10 11 13 13 13 13 10 9 8 7 7 7 8 8 12 12 11 13
14 19 11 14 22 22 13 19 21 8 8 8 13 20 17 13 16 15 15 15 14 13 12 8 11 11 12 12 13 13 13 14 12 9 9 8 8 7 7 6 8 12 13 13
19 6 17 11 16 17 22 14 16 11 12 8 6 13 14 15 15 12 7 11 11 8 8 9 9 9 9 10 11 11 12 13 13 11 8 9 9 7 7 7 9 12 14 12
14 5 18 14 10 16 15 15 12 12 14 7 14 3 16 15 11 10 8 7 4 4 4 1 1 2 1 4 5 8 9 10 10 11 11 13 10 10 8 8 8 10 11 13
3 12 13 17 7 14 4 4 11 13 16 7 12 6 11 10 11 11 9 7 5 4 3 5 5 5 5 5 4 3 5 9 11 10 10 9 11 7 7 7 11 11 10 11
7 9 4 2 4 9 7 12 8 2 3 5 11 10 11 11 12 12 9 8 6 5 5 5 5 5 6 6 5 5 3 2 5 8 10 11 11 10 8 8 7 7 6 6
5 5 4 6 7 7 10 10 6 5 4 3 6 6 5 8 12 11 11 8 6 4 5 5 4 4 4 6 6 5 5 4 4 2 6 9 10 11 10 9 7 8 6 4
4 5 1 1 1 4 9 2 2 5 9 10 5 8 4 11 8 9 6 5 4 4 4 4 4 4 4 5 6 7 7 6 6 5 4 4 5 5 6 8 7 6 6 5
5 4 2 4 2 5 4 4 2 2 3 5 8 4 6 9 11 10 8 6 5 3 3 3 4 5 5 5 6 6 7 6 7 7 5 5 3 3 4 6 7 5 7 4
6 6 2 3 4 3 1 7 3 2 6 5 7 6 5 16 16 11 9 8 6 3 1 3 4 4 5 5 6 6 7 7 7 7 7 6 6 5 6 5 4 6 5 6
7 4 4 4 5 4 2 3 2 4 3 4 6 3 9 18 15 12 7 4 4 2 2 4 4 4 5 5 6 6 7 7 7 7 6 5 4 4 3 3 4 4 4 4
3 5 4 2 2 4 4 4 6 3 4 2 4 5 9 16 15 10 6 4 4 2 1 2 3 4 4 5 6 7 8 8 7 6 5 7 7 7 7 8 8 7 7 7
6 5 5 2 2 3 5 7 4 2 3 4 3 6 7 16 11 3 2 3 5 4 2 2 2 3 4 5 6 6 7 8 7 7 7 8 9 9 10 10 10 10 9 9
3 3 2 1 5 5 4 8 7 3 2 3 3 8 11 11 10 6 2 4 4 4 4 3 4 3 4 4 5 6 6 6 7 7 8 8 9 9 10 10 10 10 10 10
3 3 3 3 3 0 3 5 10 5 5 2 5 2 11 12 9 4 2 4 5 4 4 4 4 3 3 4 5 5 6 6 6 7 7 8 8 8 9 10 10 10 11 11
0 2 2 1 1 3 5 6 8 12 14 12 8 7 4 7 4 4 3 4 4 5 5 5 4 3 2 4 5 4 4 5 6 6 8 8 7 7 8 8 10 12 11 11
2 4 3 0 2 4 8 13 13 9 8 13 10 11 6 4 2 3 4 5 5 7 6 5 6 5 3 3 4 4 5 5 6 6 7 7 6 7 9 9 10 11 11 11
4 4 1 2 3 4 4 1 4 12 6 11 8 6 5 4 5 3 3 6 7 6 6 6 5 5 5 4 4 4 5 6 5 6 6 6 8 9 10 9 10 10 9 9
4 3 2 3 4 5 4 4 5 8 4 14 12 9 4 2 2 6 5 3 6 6 4 5 5 5 5 3 4 5 4 5 6 6 5 7 9 9 9 9 9 9 9 9
2 2 3 1 3 3 5 3 2 2 3 5 4 2 2 1 4 4 8 7 7 6 6 6 6 6 5 4 4 5 4 6 6 6 6 7 8 10 9 8 9 7 7 7
5 4 6 5 3 4 6 4 1 3 4 5 3 4 3 5 3 7 8 6 5 6 7 7 6 5 5 4 5 6 6 6 6 7 7 7 7 9 8 8 6 6 6 5
6 4 4 5 4 4 7 4 3 3 3 5 5 4 3 4 5 7 7 7 7 7 8 7 6 4 5 6 7 6 6 6 6 6 7 7 7 7 7 8 7 7 6 5
4 4 1 5 2 4 5 3 4 3 1 2 3 3 3 2 5 8 8 8 8 8 7 6 7 8 6 7 8 7 6 7 7 9 9 8 8 8 7 6 6 5 4 3
5 4 5 2 4 7 6 2 4 1 1 2 1 3 1 4 6 9 8 7 7 7 8 8 9 8 8 8 8 8 9 10 10 10 9 8 7 7 6 3 3 3 3 3
3 7 7 7 9 5 9 5 4 3 3 2 4 4 4 4 6 8 8 9 8 8 9 8 8 9 10 10 10 10 10 10 9 9 8 7 5 6 5 4 4 4 6 5
6 8 7 3 5 4 4 5 2 4 4 3 4 6 4 4 6 9 8 8 9 10 10 10 10 11 11 10 10 9 9 9 9 8 6 5 4 5 4 5 6 10 8 7
Wind_Direction
183 167 193 195 202 211 212 211 233 188 154 208 223 228 232 227 221 229 244 248 236 237 242 239 243 255 246 242 243 237 232 226 223 218 192 212 213 225 245 238 224 223 221 213
165 197 166 187 206 222 245 225 211 173 180 210 218 229 234 226 233 244 252 257 255 252 248 252 249 247 245 236 233 238 240 229 227 227 190 207 209 224 229 223 243 249 225 218
169 166 166 174 216 206 238 191 205 188 185 224 277 239 229 222 232 245 263 264 269 279 272 267 271 261 257 252 247 244 235 237 235 238 235 193 222 211 198 214 221 229 243 241
167 129 193 186 221 207 202 203 208 165 182 203 195 264 194 191 213 216 204 203 179 181 189 153 358 36 358 297 296 277 275 260 243 243 245 241 217 224 226 230 227 231 229 232
112 162 172 195 173 210 184 209 181 176 212 158 187 245 129 173 187 183 167 153 149 127 103 99 84 74 67 56 35 308 262 253 249 250 248 251 249 243 237 246 244 240 220 208
85 68 58 94 37 208 147 125 112 154 187 229 180 217 165 182 183 164 154 150 132 113 110 102 86 69 66 54 41 36 39 346 263 251 244 247 257 244 240 242 253 249 239 228
71 45 36 94 78 125 126 157 146 160 189 224 137 194 16 128 145 161 159 141 115 112 93 77 67 51 45 38 29 26 20 38 13 316 250 246 250 253 251 252 252 253 254 242
83 133 23 172 143 172 132 171 277 168 189 160 152 217 128 139 173 128 134 124 130 102 82 53 41 26 35 21 19 9 10 15 10 354 344 312 286 273 274 262 271 275 263 259
132 74 70 206 229 144 133 176 2 305 20 175 172 152 145 169 167 163 163 170 147 109 59 26 17 22 18 14 21 17 9 12 12 359 345 328 324 298 284 290 289 284 292 315
116 102 68 60 18 346 156 132 163 227 186 202 184 180 141 167 167 171 171 179 155 149 69 14 7 16 18 25 16 24 22 20 15 9 15 0 355 353 349 333 324 328 317 326
126 92 125 160 196 191 145 185 269 312 326 295 150 146 119 161 160 159 150 157 154 148 20 5 6 38 46 32 28 26 23 18 11 13 25 21 22 25 17 23 16 5 340 354
23 96 146 113 71 312 316 254 213 260 170 24 317 85 159 152 135 118 123 152 158 134 20 11 53 58 59 41 31 27 24 24 15 6 18 29 28 32 36 36 30 19 20 20
160 143 130 156 208 191 229 217 228 81 353 219 289 115 184 150 161 176 188 179 171 164 183 153 122 87 76 58 40 26 27 26 22 19 31 33 34 40 38 37 32 37 41 44
330 88 333 313 44 107 192 209 194 138 205 143 235 130 188 185 196 226 185 165 173 180 175 165 149 119 90 72 45 36 35 27 37 44 45 44 41 42 45 45 45 45 48 57
313 121 95 39 59 143 205 202 200 194 240 255 60 195 176 188 206 238 174 164 173 192 194 171 180 138 122 88 62 47 37 32 38 52 57 51 52 54 60 59 62 59 57 59
96 136 121 271 251 247 254 235 215 220 230 241 247 259 272 235 181 193 197 168 198 188 186 190 163 133 97 87 77 68 57 50 50 57 63 56 57 65 72 72 78 76 74 78
227 152 202 108 221 272 250 228 207 206 215 222 220 228 149 169 198 244 224 207 194 181 185 180 179 151 125 107 108 93 73 63 59 62 65 69 75 71 66 65 74 78 76 67
201 191 219 310 238 245 78 75 226 212 221 215 231 239 251 284 289 253 213 195 176 170 171 172 162 147 133 142 113 103 82 78 75 68 75 84 86 80 79 82 74 70 69 70
280 214 192 259 249 332 158 145 167 178 192 212 225 245 272 313 204 212 166 126 140 153 169 143 136 129 134 131 101 97 103 104 93 88 85 80 95 93 89 75 77 77 79 75
143 288 264 148 265 258 70 104 180 242 135 91 182 245 282 225 267 91 146 135 140 162 143 138 135 141 139 114 125 124 121 99 87 89 95 97 102 103 90 86 81 83 85 88
192 205 231 229 277 290 129 149 225 239 100 121 332 292 286 262 20 107 125 134 158 141 136 141 153 140 122 132 131 122 114 100 102 104 104 101 94 103 92 87 83 87 93 103
206 203 210 208 240 249 136 121 244 90 92 5 349 339 311 67 128 144 148 156 157 154 153 155 134 124 128 133 132 126 114 102 104 110 108 102 106 109 112 117 127 126 127 119
230 240 311 220 223 80 167 37 40 349 346 13 343 355 318 165 169 172 170 171 169 168 154 156 161 146 132 143 148 133 129 129 127 126 126 125 129 132 129 120 123 118 112 106
228 189 238 302 204 224 204 316 25 19 112 98 292 305 260 248 188 179 176 172 174 174 171 177 161 156 155 154 147 143 146 153 150 142 135 129 122 119 111 87 94 108 93 81
8 156 224 245 269 241 234 238 107 29 333 260 273 276 269 257 202 180 183 183 177 181 171 181 175 172 165 159 155 158 159 158 153 135 133 127 132 124 116 76 42 79 45 21
209 230 219 259 21 300 76 117 2 328 338 342 286 260 234 243 214 187 184 185 180 182 172 182 179 166 164 163 160 162 170 164 149 144 138 142 142 141 134 132 101 69 87 81